[[{"header":{"parameterUnit":"m.s-1","parameterCategory":1,"la1":30.2991,"la2":30.254,"lo1":-89.0895,"lo2":-89.0444,"dy":0.0017,"dx":0.0017,"nx":28,"ny":28,"refTime":"2024-10-21T21:00:00:Z","depth":0,"parameterNumber":2,"parameterNumberName":"U-component_of_WINDS"},"data":[0,0,0,0,0,0,0,0,0,0,0,0,0,0,0,0,0,0,0,0,0,0,0,0,0,0,0,0,0,0,0,0,0,0,0,0,0,0,0,0,0,0,0,0,0,0,0,0,0,0,0,0,0,0,0,0,0,0,-0.7447,-0.7446,0,-0.7415,-0.7415,-0.7414,-0.7364,-0.7363,-0.7362,-0.7361,-0.7331,-0.7331,-0.7331,0,0,0,0,0,0,0,0,0,0,0,0,0,-0.7468,-0.7468,-0.7447,-0.7446,-0.7446,-0.7415,-0.7415,-0.7414,-0.7364,-0.7363,-0.7362,-0.736,-0.7331,-0.7331,-0.7331,0,0,0,0,0,0,0,0,0,0,0,0,0,-0.745,-0.7468,-0.7447,-0.7417,-0.7414,-0.7415,-0.7415,-0.7414,-0.7364,-0.7363,-0.7361,-0.736,-0.7331,-0.7331,-0.7331,-0.736,0,0,-0.7331,-0.7331,0,0,0,0,0,0,0,0,-0.7451,-0.7449,-0.7422,-0.7419,-0.7416,-0.7392,-0.7411,-0.7396,-0.7364,-0.7383,-0.7361,-0.7359,-0.7353,-0.7351,-0.7348,-0.7358,-0.7357,-0.7331,-0.7331,-0.7332,-0.7332,0,0,0,0,0,0,0,-0.7452,-0.745,-0.7434,-0.7422,-0.7418,-0.7407,-0.7402,-0.7408,-0.7376,-0.7381,-0.7378,-0.7374,-0.7351,-0.7348,-0.7347,-0.7356,-0.7331,-0.7332,-0.7332,-0.7332,-0.7393,-0.7394,0,0,0,0,0,0,-0.7457,-0.7452,-0.7435,-0.7433,-0.743,-0.7407,-0.7403,-0.7401,-0.7376,-0.7371,-0.7376,-0.7372,-0.7348,-0.7347,-0.7346,-0.738,-0.7332,-0.7332,-0.7332,-0.7391,-0.7393,-0.7395,0,0,0,0,0,0,-0.7458,-0.7456,-0.7437,-0.7441,-0.7438,-0.7408,-0.7407,-0.7401,-0.7398,-0.7371,-0.7366,-0.7379,-0.7347,-0.7345,-0.7357,-0.7379,-0.7332,-0.7332,-0.7389,-0.7392,-0.7394,-0.7449,0,0,0,0,0,0,-0.7459,-0.7457,-0.7466,-0.7442,-0.7438,-0.7448,-0.7408,-0.7401,-0.7398,-0.7394,-0.7373,-0.7368,-0.7346,-0.7357,-0.7357,-0.7378,-0.7332,-0.7387,-0.739,-0.7393,-0.7445,-0.7452,-0.7459,0,0,0,0,0,-0.746,-0.7483,-0.7467,-0.7465,-0.7449,-0.7449,-0.7447,-0.742,-0.74,-0.7411,-0.7394,-0.7369,-0.7376,-0.7359,-0.7359,-0.7379,-0.7386,-0.739,-0.7393,-0.7442,-0.7451,-0.7459,0,0,0,0,0,0,-0.7511,-0.7479,-0.7461,-0.7477,-0.7466,-0.744,-0.7452,-0.743,-0.7426,-0.7422,-0.739,-0.7385,-0.7402,-0.7391,-0.7373,-0.7408,-0.7377,-0.7381,-0.7414,-0.7423,-0.743,-0.7434,-0.7332,0,0,0,0,0,-0.7523,-0.7525,-0.7497,-0.7514,-0.7509,-0.7482,-0.7481,-0.7462,-0.7449,-0.7445,-0.7429,-0.7419,-0.7419,-0.742,-0.7418,-0.7442,-0.7439,-0.7457,-0.7464,-0.747,-0.7474,-0.749,-0.7499,-0.7406,-0.7406,-0.7406,0,0,-0.755,-0.7533,-0.7536,-0.7524,-0.7513,-0.7518,-0.7478,-0.7484,-0.7487,-0.7446,-0.7457,-0.7445,-0.7432,-0.7451,-0.7458,-0.7442,-0.7499,-0.7474,-0.7479,-0.748,-0.7494,-0.7503,-0.7511,-0.7409,-0.7408,-0.7408,0,0,-0.7602,-0.7588,-0.7602,-0.7592,-0.7577,-0.7559,-0.7562,-0.754,-0.7531,-0.7541,-0.7511,-0.7515,-0.7515,-0.7509,-0.7505,-0.7557,-0.7535,-0.7557,-0.7596,-0.7611,-0.7619,-0.7625,-0.7647,-0.7655,-0.7561,-0.7561,-0.7561,0,-0.7638,-0.7642,-0.7612,-0.762,-0.7617,-0.7579,-0.7595,-0.7587,-0.7572,-0.7572,-0.7554,-0.7555,-0.7544,-0.7562,-0.7575,-0.7572,-0.7578,-0.7561,-0.762,-0.7626,-0.7631,-0.7652,-0.766,-0.7564,-0.7564,-0.7564,-0.7563,0,-0.7689,-0.7692,-0.7705,-0.7692,-0.769,-0.7702,-0.7675,-0.7677,-0.7659,-0.7643,-0.7656,-0.7641,-0.7637,-0.764,-0.7621,-0.7657,-0.7648,-0.7625,-0.7595,-0.7644,-0.7663,-0.767,-0.7569,-0.7568,-0.7567,-0.7566,0,0,-0.7772,-0.7743,-0.7749,-0.7744,-0.7725,-0.7728,-0.7739,-0.7735,-0.7739,-0.773,-0.7741,-0.7743,-0.7723,-0.7719,-0.7699,-0.7713,-0.776,-0.7689,-0.7688,-0.7706,-0.7803,-0.7822,-0.7832,-0.7744,-0.7745,-0.7746,-0.7805,0,-0.7822,-0.7839,-0.7813,-0.7837,-0.7841,-0.7807,-0.7817,-0.7807,-0.7794,-0.7797,-0.7782,-0.7785,-0.7756,-0.7755,-0.7766,-0.7752,-0.7779,-0.7746,-0.7757,-0.7757,-0.7764,-0.7841,-0.7861,-0.7917,-0.7812,-0.7813,-0.7814,0,-0.7883,-0.7878,-0.7903,-0.7885,-0.7886,-0.7895,-0.7892,-0.7894,-0.7884,-0.7873,-0.787,-0.7847,-0.7859,-0.7828,-0.7846,-0.7825,-0.7827,-0.7821,-0.7822,-0.7825,-0.7791,-0.7849,-0.7934,-0.7944,-0.7825,-0.7824,-0.7823,0,-0.7946,-0.7945,-0.796,-0.7957,-0.7936,-0.7944,-0.7936,-0.7924,-0.7924,-0.7921,-0.7922,-0.792,-0.792,-0.792,-0.7899,-0.7877,-0.7921,-0.7887,-0.7915,-0.7916,-0.7928,-0.7928,-0.8018,-0.7925,-0.7924,-0.7924,-0.7924,0,-0.8007,-0.8024,-0.7989,-0.7999,-0.8018,-0.7988,-0.8008,-0.7997,-0.7987,-0.7996,-0.7965,-0.7974,-0.7943,-0.7949,-0.7932,-0.7952,-0.7952,-0.7946,-0.7942,-0.795,-0.7952,-0.7953,-0.795,-0.7926,-0.7926,-0.7926,-0.7925,0,-0.8081,-0.8058,-0.8073,-0.8052,-0.8047,-0.8063,-0.8045,-0.8055,-0.8039,-0.8051,-0.8052,-0.8028,-0.8035,-0.8012,-0.8015,-0.8003,-0.8034,-0.8022,-0.8038,-0.8035,-0.8066,-0.8065,-0.8163,-0.8176,-0.8071,-0.8072,-0.8073,0,-0.8123,-0.8135,-0.8116,-0.812,-0.8113,-0.8118,-0.8119,-0.8091,-0.8094,-0.8084,-0.8096,-0.8099,-0.8101,-0.8113,-0.8098,-0.81,-0.809,-0.8124,-0.809,-0.81,-0.8095,-0.8096,-0.8099,-0.8132,-0.8134,-0.8135,-0.8135,0,-0.8201,-0.8189,-0.8191,-0.8189,-0.8191,-0.8189,-0.8184,-0.8189,-0.8159,-0.8164,-0.817,-0.8171,-0.8175,-0.818,-0.818,-0.8173,-0.8151,-0.8146,-0.8153,-0.8164,-0.8174,-0.8173,-0.8061,-0.8144,-0.8143,-0.8143,-0.8142,-0.8142,-0.8262,-0.8273,-0.8262,-0.8266,-0.826,-0.8257,-0.8266,-0.8252,-0.8256,-0.8257,-0.824,-0.825,-0.8243,-0.824,-0.8236,-0.8245,-0.823,-0.8239,-0.8243,-0.8246,-0.8253,-0.817,-0.8245,-0.8244,-0.8244,-0.8244,-0.8244,0,-0.8342,-0.8333,-0.8337,-0.8332,-0.8336,-0.8313,-0.8308,-0.8313,-0.8322,-0.8316,-0.8319,-0.8328,-0.8334,-0.8319,-0.8323,-0.8334,-0.8324,-0.8336,-0.8337,-0.8337,-0.8265,-0.826,-0.8344,-0.8344,-0.8344,-0.8344,-0.8344,-0.8344,-0.8384,-0.8402,-0.839,-0.8406,-0.8397,-0.8407,-0.8407,-0.8405,-0.8401,-0.8412,-0.8416,-0.8406,-0.8398,-0.8402,-0.8407,-0.8403,-0.8407,-0.8424,-0.8417,-0.8351,-0.8341,-0.8332,-0.8327,-0.8424,-0.8424,-0.8488,-0.8488,-0.8489]},{"header":{"parameterUnit":"m.s-1","parameterCategory":1,"la1":30.2991,"la2":30.254,"lo1":-89.0895,"lo2":-89.0444,"dy":0.0017,"dx":0.0017,"nx":28,"ny":28,"refTime":"2024-10-21T21:00:00:Z","depth":0,"parameterNumber":3,"parameterNumberName":"V-component_of_WINDS"},"data":[0,0,0,0,0,0,0,0,0,0,0,0,0,0,0,0,0,0,0,0,0,0,0,0,0,0,0,0,0,0,0,0,0,0,0,0,0,0,0,0,0,0,0,0,0,0,0,0,0,0,0,0,0,0,0,0,0,0,0.8529,0.8529,0,0.8528,0.8528,0.8528,0.8535,0.8536,0.8536,0.8536,0.8534,0.8534,0.8533,0,0,0,0,0,0,0,0,0,0,0,0,0,0.8533,0.8532,0.8529,0.8529,0.8529,0.8528,0.8528,0.8528,0.8535,0.8536,0.8536,0.8536,0.8534,0.8534,0.8533,0,0,0,0,0,0,0,0,0,0,0,0,0,0.8531,0.8532,0.8529,0.8532,0.8533,0.8528,0.8528,0.8528,0.8535,0.8536,0.8536,0.8536,0.8534,0.8534,0.8533,0.8525,0,0,0.8532,0.8532,0,0,0,0,0,0,0,0,0.8531,0.8531,0.8532,0.8532,0.8532,0.8532,0.8529,0.8527,0.8535,0.8534,0.8536,0.8536,0.8533,0.8533,0.8532,0.8525,0.8525,0.8532,0.8532,0.8532,0.8532,0,0,0,0,0,0,0,0.8531,0.8531,0.8528,0.8532,0.8532,0.8533,0.8533,0.8529,0.8532,0.8534,0.8535,0.8535,0.8533,0.8532,0.8532,0.8525,0.8532,0.8532,0.8532,0.8531,0.8509,0.8509,0,0,0,0,0,0,0.8531,0.8531,0.8529,0.8528,0.8533,0.8533,0.8533,0.8532,0.8532,0.8532,0.8535,0.8535,0.8533,0.8532,0.8532,0.8521,0.8532,0.8531,0.8531,0.851,0.8509,0.8509,0,0,0,0,0,0,0.8531,0.8531,0.8529,0.853,0.853,0.8532,0.8531,0.8532,0.8531,0.8532,0.8533,0.8533,0.8533,0.8532,0.8526,0.8521,0.8531,0.8531,0.851,0.8509,0.8509,0.85,0,0,0,0,0,0,0.8532,0.8531,0.8529,0.853,0.853,0.8524,0.8531,0.8532,0.8531,0.8531,0.8531,0.8531,0.8533,0.8527,0.8526,0.8521,0.8531,0.851,0.851,0.8509,0.8501,0.8499,0.8498,0,0,0,0,0,0.8532,0.8526,0.8529,0.8528,0.8527,0.8524,0.8523,0.8526,0.853,0.8527,0.8528,0.8531,0.8522,0.8526,0.8525,0.852,0.8511,0.851,0.8509,0.8501,0.8499,0.8498,0,0,0,0,0,0,0.8524,0.8527,0.8529,0.8524,0.8524,0.8525,0.8521,0.8524,0.8522,0.8523,0.8526,0.8526,0.8519,0.8519,0.8524,0.8511,0.8517,0.8516,0.8511,0.8509,0.8508,0.8508,0.853,0,0,0,0,0,0.8522,0.852,0.8522,0.8517,0.8517,0.8519,0.8518,0.852,0.8519,0.8519,0.8519,0.8518,0.8514,0.8512,0.8509,0.8501,0.85,0.8496,0.8495,0.8494,0.8492,0.8486,0.8484,0.8506,0.8506,0.8506,0,0,0.8517,0.8518,0.8517,0.8516,0.8516,0.8512,0.8519,0.8516,0.8513,0.8518,0.8512,0.8512,0.8511,0.8503,0.85,0.8503,0.8486,0.8492,0.8492,0.8491,0.8485,0.8483,0.8481,0.8505,0.8505,0.8505,0,0,0.8507,0.8508,0.8504,0.8503,0.8503,0.8504,0.8503,0.8504,0.8504,0.8498,0.8502,0.8498,0.8493,0.8491,0.8489,0.8476,0.8479,0.8475,0.8467,0.8461,0.8459,0.8458,0.8451,0.8449,0.8474,0.8474,0.8474,0,0.8501,0.8497,0.8501,0.8497,0.8495,0.8501,0.8495,0.8494,0.8493,0.8491,0.8495,0.8487,0.8486,0.8477,0.8474,0.8473,0.8471,0.8475,0.8459,0.8458,0.8456,0.845,0.8448,0.8474,0.8474,0.8474,0.8474,0,0.8489,0.8486,0.8482,0.8481,0.8479,0.8474,0.8476,0.8474,0.8476,0.8476,0.8469,0.8468,0.8465,0.8463,0.8465,0.8454,0.8455,0.8459,0.8465,0.8454,0.8448,0.8446,0.8473,0.8473,0.8473,0.8473,0,0,0.8474,0.8474,0.8473,0.8471,0.8471,0.8468,0.8463,0.8459,0.8456,0.8455,0.8449,0.8444,0.8447,0.8445,0.8447,0.8441,0.8429,0.8445,0.8445,0.8441,0.8414,0.841,0.8407,0.8431,0.843,0.843,0.8413,0,0.8463,0.8455,0.8457,0.8449,0.8445,0.8449,0.8444,0.8442,0.8442,0.8438,0.8438,0.8434,0.8439,0.8437,0.8432,0.8431,0.8423,0.8433,0.8424,0.8424,0.8423,0.8405,0.8401,0.8386,0.8411,0.8411,0.8411,0,0.8449,0.8447,0.8438,0.8436,0.8435,0.8431,0.8427,0.8423,0.8421,0.8421,0.8418,0.842,0.8413,0.842,0.8409,0.8416,0.8412,0.8411,0.841,0.8409,0.8416,0.8401,0.8381,0.8378,0.8408,0.8408,0.8408,0,0.8437,0.8432,0.8426,0.8425,0.8423,0.842,0.8419,0.8417,0.8414,0.841,0.8408,0.8403,0.84,0.8396,0.8396,0.8401,0.8384,0.8392,0.8383,0.8383,0.8379,0.8379,0.8356,0.8379,0.8379,0.8379,0.8379,0,0.8424,0.8418,0.842,0.8416,0.8408,0.8411,0.8403,0.8403,0.84,0.8395,0.8398,0.8393,0.8394,0.8388,0.8388,0.8378,0.8377,0.8376,0.8376,0.8375,0.8375,0.8372,0.8372,0.8378,0.8378,0.8378,0.8378,0,0.841,0.8411,0.8404,0.8403,0.8402,0.8397,0.8395,0.839,0.839,0.8383,0.8382,0.8381,0.8374,0.8374,0.8366,0.8366,0.8353,0.8355,0.8354,0.8354,0.8345,0.8345,0.8318,0.8314,0.8341,0.8341,0.834,0,0.8401,0.8396,0.8394,0.8391,0.839,0.8385,0.8382,0.8384,0.838,0.8376,0.8371,0.8364,0.8359,0.8348,0.8346,0.8339,0.834,0.8331,0.8339,0.8337,0.8337,0.8337,0.8335,0.8329,0.8328,0.8328,0.8328,0,0.8384,0.8385,0.8381,0.8376,0.8373,0.8369,0.8366,0.8363,0.8364,0.8359,0.8352,0.8348,0.834,0.8332,0.8325,0.8323,0.8325,0.8326,0.8323,0.8321,0.832,0.8319,0.8348,0.8326,0.8326,0.8326,0.8327,0.8327,0.8371,0.8367,0.8364,0.8359,0.8356,0.8353,0.8348,0.8347,0.8341,0.8335,0.8336,0.8327,0.8323,0.8314,0.8311,0.8303,0.8306,0.8303,0.8302,0.83,0.8298,0.8323,0.8302,0.8302,0.8302,0.8302,0.8302,0,0.8353,0.8352,0.8347,0.8342,0.8337,0.834,0.8336,0.8332,0.8325,0.8321,0.8315,0.8306,0.8298,0.8295,0.8287,0.8282,0.8282,0.8279,0.8279,0.8278,0.8297,0.83,0.8279,0.8279,0.8279,0.8279,0.8279,0.8279,0.8344,0.8335,0.8335,0.8325,0.8323,0.8315,0.8312,0.8308,0.8305,0.8294,0.8288,0.8287,0.8282,0.8274,0.8266,0.8265,0.8261,0.8258,0.8257,0.8275,0.8277,0.8279,0.8281,0.8257,0.8257,0.8238,0.8238,0.8238]}]]